Zurück zum Katalog

STARLINK-3158

AktivKommunikationVLEO
NORAD 49432·PAYLOAD·🇺🇸 United States

Gestartet Nov 13, 2021 von Cape Canaveral Space Force Station

Loading…

Nächste Überflüge (nächste 24 Stunden)

TLE

AktuellSource: CelesTrak SupGP

Epoche: Sep 15, 2026, 01:29 UTC

1 49432C 21104AA  26258.06229167 -.00019114  00000+0 -61468-3 0  2589
2 49432  53.1576  77.1739 0001277  82.3948 173.3084 15.31710817    17

Verfolge STARLINK-3158 in Echtzeit mit AllMySat

Download on the App Store